Regional Weather Roundup
Issued by NWS

Home | Current Version | Previous Version | Text Only | Print | Product List | Glossary Off
Versions: 1 2 3 4 5 6 7 8 9 10 11 12 13 14 15 16 17 18 19 20 21 22 23 24 25 26 27

000
ASUS45 KBOU 192106
RWRCO

WEATHER ROUNDUP FOR COLORADO
NATIONAL WEATHER SERVICE DENVER/BOULDER CO
300 PM MDT SAT APR 19 2014

NOTE: "FAIR" INDICATES FEW OR NO CLOUDS BELOW 12000 FEET WITH NO
SIGNIFICANT WEATHER AND/OR OBSTRUCTIONS TO VISIBILITY.

COZ001>005-013-030-031-192200-
...NORTHWEST COLORADO...

CITY           SKY/WX    TMP DP  RH WIND       PRES   REMARKS
CRAIG          CLOUDY    56  40  55 W15       30.10R
HAYDEN         CLOUDY    48  41  76 S9        30.14R
MEEKER         CLOUDY    56  42  59 CALM      30.10F
MOUNT WERNER   CLOUDY    45  28  53 W12       30.26S
STEAMBOAT SPGS CLOUDY    57  29  34 W8        30.10S
WALDEN         CLOUDY    55  30  38 W7        30.13S
$$

COZ006>008-011-192200-
...WEST CENTRAL VALLEYS...

CITY           SKY/WX    TMP DP  RH WIND       PRES   REMARKS
GRAND JUNCTION PTSUNNY   61  44  53 VRB5      30.06F
MONTROSE       PTSUNNY   62  40  44 CALM      30.09F
EAGLE          PTSUNNY   63  32  31 SW9G17    30.06F
RIFLE          PTSUNNY   62  37  39 W15       30.06F
DELTA          CLOUDY    64  40  40 E3        30.06F
NUCLA            N/A     59  45  58 N9        30.13F
$$

COZ017>023-064>068-192200-
...SOUTHWEST COLORADO...

CITY           SKY/WX    TMP DP  RH WIND       PRES   REMARKS
DURANGO        PTSUNNY   61  32  33 MISG      30.10F
CORTEZ         CLOUDY    62  35  36 NW10      30.08F
PAGOSA SPRINGS PTSUNNY   57  32  38 S5        30.15F
TELLURIDE      NOT AVBL
WOLF CREEK PAS PTSUNNY   34  28  80 SW12G20   30.29F WCI  25
$$

COZ009-010-012-014-032>034-037-058>063-192200-
...CENTRAL COLORADO...

CITY           SKY/WX    TMP DP  RH WIND       PRES   REMARKS
ASPEN          LGT RAIN  56  35  45 NW13      30.10S
BUENA VISTA    PTSUNNY   60  29  30 SE12G17   30.10F
COPPER MTN     PTSUNNY   41  28  60 S14G21    30.29R THUNDER
BERTHOUD PASS  TSTM      30  21  69 NW3       30.33S VSB 3/4
COTTONWOOD PAS CLOUDY    50  28  43 SE15G24   30.18F
GUNNISON       MOSUNNY   57  27  30 CALM      30.13F
KREMMLING      PTSUNNY   63  28  27 SW6       30.09F
LEADVILLE      PTSUNNY   47  27  45 VRB3      30.18F
MONARCH PASS   LGT SNOW  34  32  93 NW7       30.41R WCI  28
SALIDA         CLOUDY    63  28  26 SW8G16    30.15S
SUNLIGHT       CLOUDY    43  34  70 CALM      30.26F
WILKERSON PASS FLURRIES  39  32  75 S6        30.30F
$$

COZ069>075-192200-
...SAN LUIS VALLEY/SANGRE DE CRISTO MOUNTAINS...

CITY           SKY/WX    TMP DP  RH WIND       PRES   REMARKS
ALAMOSA        PTSUNNY   63  25  23 SW7G16    30.08F
LA VETA PASS   MOSUNNY   54  25  32 SW3       30.22F
SAGUACHE       MOSUNNY   63  28  27 SW6       30.09F
$$

COZ035-036-038>040-192200-
...NORTHERN COLORADO FRONT RANGE...

CITY           SKY/WX    TMP DP  RH WIND       PRES   REMARKS
DENVER INTL AP CLOUDY    65  37  35 E10G22    30.04F
DMNS CITY PARK   N/A     65  36  33 E10G22    30.01F
AURORA         PTSUNNY   66  36  32 SE9       30.05F
FRONT RANGE AP NOT AVBL
ERIE MUNI ARPT PTSUNNY   67  36  31 SE8G20    30.02F
BOULDER MUN AP PTSUNNY   61  37  41 N5        30.03F THUNDER
CENTENNIAL     PTSUNNY   64  35  34 E10G21    30.04F
BROOMFIELD     PTSUNNY   66  34  30 E13       30.05F
FORT COLLINS   PTSUNNY   68  43  40 SE8G16    30.03F
LONGMONT       PTSUNNY   69  37  31 CALM      30.04F
$$

COZ041-046-047-076>085-087-088-192200-
...PIKES PEAK/PALMER DIVIDE AND SOUTHERN FOOTHILLS...

CITY           SKY/WX    TMP DP  RH WIND       PRES   REMARKS
COLO. SPRINGS  PTSUNNY   67  30  25 E18       30.05F
A. F. ACADEMY  CLOUDY    61  30  30 E7        30.08F
ELLICOTT       NOT AVBL
FALCON         PTSUNNY   67  30  25 NE15G21   30.11F
FORT CARSON    PTSUNNY   66  32  28 VRB6      30.03F
LIMON          PTSUNNY   66  33  29 NE17G26   30.04F
MONUMENT HILL  PTSUNNY   59  32  36 E16       30.10F
TRINIDAD       PTSUNNY   72  30  21 VRB5      29.99F
$$

COZ042>045-048>051-090-091-192200-
...NORTHEAST COLORADO...

CITY           SKY/WX    TMP DP  RH WIND       PRES   REMARKS
GREELEY ARPT   MOSUNNY   64  39  39 SE7       30.03F
AKRON          PTSUNNY   63  38  39 N10G18    30.04F
BURLINGTON     SUNNY     72  42  34 NE20G25   30.00R
WRAY           CLOUDY    68  38  33 NE15      30.01S
STERLING       CLOUDY    64  41  42 NE8       30.04F
HOLYOKE        CLOUDY    68  36  30 NE14      30.03F
FORT MORGAN    CLOUDY    60  36  41 E14       30.04F
$$

COZ086-089-092>099-192200-
...SOUTHEAST COLORADO...

CITY           SKY/WX    TMP DP  RH WIND       PRES   REMARKS
PUEBLO         PTSUNNY   75  31  19 NE9       29.95F
LA JUNTA       MOSUNNY   79  31  17 SW7       29.92F
LAMAR          MOSUNNY   81  33  17 MISG      29.89F
SPRINGFIELD      N/A     80  37  21 S29G39    29.92F
$$



USA.gov is the U.S. government's official web portal to all federal, state and local government web resources and services.